sat.trackr.live / text

‹ back to catalog

STARLINK-31466

NORAD 59420 · 2024-064Y

PAYLOAD ACTIVE UNKNOWN

§ Identity

Operator
Country
US
Launch date
2024-04-05
Launch site
AFETR
Launch vehicle
Mass (kg)
RCS (m²)

Purposes: comms

External: N2YO · Heavens-Above · Gunter

§ Orbital elements

Epoch: 2026-05-24T22:38:15.933408Z

Period
94.27 min
Inclination
43.0039°
Eccentricity
0.0000979
Mean motion
15.27581469 rev/d
Perigee alt
482.4 km
Apogee alt
483.7 km
Semi-major
6,861.2 km
B*
7.2539e-5
RAAN
345.8890°
Arg perigee
278.6979°
Mean anomaly
81.3762°
Rev number
12,088

§ Raw data

STARLINK-314661 59420U 24064Y   26144.94323997  .00001735  00000+0  72539-4 0  99942 59420  43.0039 345.8890 0000979 278.6979  81.3762 15.27581469120885

JSON: /api/v1/satellites/59420 · /tle

For live sub-satellite position, see the globe view (requires WebGL).

§ Visibility from observer

Set your observer location to see the next 7 days of passes ≥ 10°. The values pass through the URL so the page stays shareable.

No JS? Fill the form by hand. The geolocation button needs JavaScript.